Theta_e
312 310 311 308 309 309 310 310 311 311 311 311 311 311 312 308 309 308 306 306 307 307 308 309 310 310 310 312 313 314 314 314 314 314 313 313 314 315 315 316 316 316 317 316
309 313 309 309 309 310 311 312 313 312 310 311 311 310 311 308 309 308 306 307 308 308 309 310 312 313 312 313 313 314 314 315 314 313 315 316 315 315 315 312 312 312 311 313
313 310 308 309 310 312 309 311 311 312 311 311 311 309 311 311 310 308 309 309 309 309 309 309 311 310 311 312 313 313 313 312 310 310 312 310 311 310 308 308 308 308 308 309
309 308 309 309 310 310 313 309 311 313 309 309 310 308 311 310 311 309 308 307 304 303 304 305 305 307 309 311 309 309 307 306 306 306 307 307 307 307 307 306 306 306 307 307
311 309 310 311 309 309 313 309 310 312 311 311 311 310 309 309 310 309 307 305 303 302 303 304 305 307 308 307 307 306 306 306 305 305 305 305 305 305 305 304 303 302 304 305
309 306 307 307 308 308 309 310 311 311 310 311 311 310 311 310 309 307 307 305 304 303 303 304 306 307 307 307 306 306 305 305 304 304 304 303 303 303 302 303 302 302 302 302
310 308 307 307 310 309 310 312 315 317 313 313 312 310 310 307 307 307 306 304 303 303 303 304 305 306 306 306 305 304 304 304 304 303 303 302 302 302 302 302 301 301 301 301
311 313 309 306 309 312 312 312 312 313 317 315 310 310 309 306 305 305 305 303 303 304 304 304 305 306 305 305 304 304 304 303 303 302 302 301 301 301 301 300 300 300 300 300
314 312 306 306 306 309 312 310 311 311 311 310 308 308 306 304 305 304 305 305 305 304 304 304 305 305 305 305 304 303 303 302 302 302 301 301 300 300 299 299 299 299 299 299
309 311 307 307 307 308 310 309 308 306 309 318 312 310 310 305 305 305 305 305 304 303 303 303 304 304 305 305 304 303 303 302 301 301 301 300 299 298 298 298 297 298 298 298
308 309 309 307 307 309 307 309 309 308 310 312 310 309 308 306 304 304 304 304 302 302 302 301 302 303 303 304 304 303 303 301 301 300 300 300 299 299 298 298 297 297 297 296
308 308 306 310 307 306 308 309 307 307 309 308 306 307 306 304 302 302 303 302 302 300 300 299 300 301 301 302 303 302 302 301 300 300 300 300 299 299 298 298 297 297 297 296
306 307 305 310 308 307 308 308 309 306 305 310 307 308 303 301 303 302 301 300 300 300 300 298 299 299 300 299 299 300 300 301 300 300 300 299 299 298 298 298 298 297 297 296
307 309 307 308 311 309 308 308 308 306 302 307 308 307 305 303 304 301 299 298 298 298 299 299 297 296 295 294 294 295 295 294 294 294 295 297 299 299 298 298 297 297 297 296
305 304 309 309 309 309 308 308 308 304 307 307 307 306 306 302 300 298 297 297 297 296 297 297 292 291 292 293 293 293 293 293 293 293 294 295 297 297 297 297 296 296 295 295
304 303 297 299 306 306 307 307 307 307 308 307 308 307 301 298 297 297 297 296 296 294 294 291 291 291 291 292 293 293 293 293 294 293 293 293 294 296 296 296 296 295 294 294
305 303 301 306 305 302 302 304 305 306 306 306 306 304 300 299 298 296 294 292 291 290 290 290 290 291 292 293 293 293 293 294 293 293 294 293 294 294 295 295 294 294 294 293
305 304 303 303 301 303 303 302 302 304 303 302 300 299 298 296 294 293 290 290 290 290 290 290 291 292 293 293 293 293 293 293 293 292 293 293 293 294 294 294 292 291 291 291
302 306 304 304 302 303 303 302 302 300 300 297 296 295 294 293 292 293 291 291 290 289 291 292 293 293 292 292 292 292 291 291 291 291 291 292 293 293 293 291 291 291 291 291
301 305 307 303 305 306 300 299 300 299 300 295 294 293 292 291 290 288 290 290 290 291 291 292 292 292 292 292 292 291 290 290 290 290 290 291 292 292 291 291 291 291 291 290
302 303 308 308 309 304 297 298 298 299 297 293 291 291 291 290 289 289 289 290 291 291 291 292 292 292 292 292 291 290 289 289 289 289 289 290 291 291 291 291 291 290 290 290
302 304 302 304 307 307 296 296 297 293 292 291 290 290 290 289 289 289 289 289 290 290 291 291 291 291 291 291 290 288 288 288 288 288 288 289 289 289 290 290 290 289 289 289
302 302 303 303 303 295 293 292 291 290 289 290 290 290 289 289 289 289 289 289 289 290 290 290 290 290 291 289 289 288 288 288 288 288 288 288 288 288 288 288 288 288 288 288
297 296 297 296 292 290 290 289 289 288 289 290 290 289 289 288 288 288 288 289 289 289 289 290 289 288 288 288 288 288 288 288 287 287 287 287 287 288 288 288 288 288 287 287
293 294 294 292 290 288 288 288 288 289 289 289 289 288 288 287 288 287 288 289 289 289 289 289 288 288 288 287 287 287 287 287 287 287 287 287 287 287 287 287 287 287 287 287
290 291 289 288 288 287 287 288 289 289 288 288 288 287 287 287 287 288 287 288 288 288 288 288 288 287 286 287 287 287 287 287 287 287 287 287 287 287 287 287 287 287 288 288
Wind_Speed
1 5 3 3 3 3 2 1 1 2 3 3 6 7 9 8 5 5 6 8 7 8 7 8 7 5 5 6 4 5 3 6 5 5 7 7 8 8 7 7 7 7 8 10
5 2 2 2 2 2 1 1 2 2 3 1 2 7 2 5 4 6 10 8 9 7 5 8 10 9 10 8 5 3 3 3 5 6 6 5 8 6 6 8 8 10 10 10
5 2 1 0 2 3 4 3 2 0 4 3 2 6 3 2 5 7 5 7 7 9 8 6 10 10 7 4 3 4 4 5 6 6 4 4 2 4 9 10 11 11 10 10
4 1 1 1 3 2 3 1 2 2 4 2 2 4 3 3 4 6 7 8 8 8 5 8 10 9 6 6 6 5 5 4 5 6 6 7 6 5 7 9 8 9 9 10
3 2 1 2 2 1 3 1 2 1 1 2 3 3 6 5 5 8 8 8 7 7 7 6 8 9 6 5 4 3 3 5 5 4 6 6 6 6 6 9 9 11 8 8
2 1 2 2 2 2 4 3 3 3 2 2 4 5 4 5 7 6 5 7 8 7 7 8 9 7 5 3 2 1 1 3 4 4 5 6 7 7 9 10 12 13 12 12
1 1 0 1 2 1 2 5 3 4 3 5 2 1 7 3 2 9 11 9 8 7 6 5 6 5 3 1 0 1 2 2 3 4 5 6 6 7 8 10 13 15 15 16
5 4 5 1 1 5 4 5 5 6 3 4 3 5 4 2 5 8 10 9 8 7 6 6 7 4 2 2 2 2 3 3 4 5 5 5 6 7 7 9 11 12 13 15
5 1 1 3 2 2 2 2 3 5 3 3 4 3 4 4 7 8 9 8 7 7 6 5 4 4 5 6 7 6 6 6 6 7 7 7 8 9 11 12 12 13 14 16
4 4 2 1 2 1 2 1 3 3 2 4 5 4 4 6 7 7 8 8 7 6 6 5 7 8 11 12 12 7 6 8 8 8 9 10 12 12 13 14 16 15 16 18
2 3 2 3 5 7 1 1 1 3 4 4 1 5 3 6 8 9 9 9 8 7 3 4 5 8 10 15 10 8 9 8 9 10 13 16 17 18 18 18 19 19 20 22
2 5 3 4 1 2 2 5 5 4 4 3 3 5 2 6 7 7 5 7 5 6 5 4 8 13 17 2 7 9 10 11 13 15 18 20 21 22 24 25 24 22 23 24
5 1 2 5 4 3 3 4 4 5 3 4 5 5 2 6 8 7 9 7 5 5 5 5 11 13 15 16 15 15 15 15 17 21 23 24 26 28 29 29 26 23 24 27
4 3 6 7 4 4 4 5 5 6 3 4 6 3 4 4 6 6 6 6 5 5 5 3 7 11 16 21 24 25 24 26 29 30 30 34 37 37 35 30 24 25 26 27
5 5 2 3 2 1 5 5 7 8 8 8 4 7 3 5 7 5 4 7 9 7 7 5 5 10 16 21 23 25 30 31 29 31 29 30 33 19 21 24 26 29 29 28
1 1 3 4 5 2 5 8 11 8 8 11 11 8 6 6 6 5 4 3 2 5 5 5 6 12 16 19 23 25 27 29 31 32 32 32 32 32 25 25 29 30 29 30
6 5 3 4 2 5 6 11 12 4 3 4 8 2 6 4 5 2 3 4 4 4 5 6 8 14 18 19 22 25 27 28 27 28 31 31 32 32 27 27 28 32 30 32
6 6 3 3 3 2 4 2 3 7 4 5 7 6 6 5 3 3 5 4 5 5 6 7 14 18 20 22 24 26 29 31 29 30 31 31 31 32 33 31 27 25 27 31
1 5 2 3 4 6 3 3 4 5 1 3 6 5 4 3 1 1 3 3 5 6 8 13 17 21 23 26 26 28 31 32 34 32 31 32 32 33 33 34 32 32 34 35
4 3 4 3 4 5 2 2 1 2 2 4 5 4 3 2 3 4 6 5 7 13 16 20 22 25 27 31 32 33 31 29 29 32 34 36 36 35 34 35 34 34 33 32
4 2 8 5 4 6 5 4 2 4 4 3 4 3 3 1 4 5 7 10 18 20 25 27 29 29 30 33 34 31 31 28 33 35 36 37 35 35 37 36 37 35 33 31
7 7 4 3 3 8 6 4 4 4 3 4 3 2 2 5 7 7 9 8 16 19 24 27 26 26 31 33 31 28 26 33 35 35 34 34 34 35 34 33 32 32 31 29
3 5 5 7 4 4 3 6 4 5 5 4 2 2 4 6 7 9 9 10 15 19 21 24 24 26 30 30 31 29 31 32 34 33 33 34 34 35 33 29 29 27 27 26
2 1 3 4 2 6 6 5 5 5 4 3 3 4 4 7 9 11 11 11 16 19 21 26 25 23 27 31 32 31 33 34 34 33 34 33 31 31 32 29 27 27 25 25
2 4 4 2 3 5 3 5 5 4 3 2 4 4 6 7 11 9 13 14 18 21 25 25 25 26 29 32 33 33 32 32 31 34 33 32 31 31 30 29 27 27 29 29
3 5 4 4 3 4 4 5 5 2 2 4 2 5 9 9 9 16 14 21 22 25 28 27 25 27 31 30 28 28 29 32 33 32 29 28 28 28 27 26 28 30 32 35
Wind_Direction
317 77 154 154 133 174 241 253 120 123 211 171 226 256 272 188 165 196 140 149 132 126 130 121 121 120 122 107 98 71 32 30 12 9 12 17 13 13 20 22 12 0 351 344
31 126 155 124 85 81 40 342 26 57 190 197 272 269 253 171 194 182 145 145 134 125 137 149 135 107 108 103 92 80 57 33 7 8 14 5 355 2 25 15 5 352 354 350
142 186 161 146 76 75 42 104 72 119 316 272 350 319 80 40 77 77 105 138 137 158 164 149 122 113 123 124 103 76 42 34 19 13 3 9 24 22 11 13 9 14 13 7
104 251 200 136 97 65 166 360 89 52 51 234 92 278 267 192 151 120 139 138 132 120 139 123 127 106 89 76 78 67 61 62 46 34 31 34 36 25 9 5 11 11 23 16
224 149 124 107 118 11 164 119 105 107 91 44 308 95 276 145 200 213 190 165 158 152 139 114 102 94 94 107 107 93 65 43 32 26 29 27 25 18 8 7 5 9 13 8
105 317 67 117 106 83 148 109 35 42 75 28 243 135 249 199 209 198 175 152 142 130 122 122 129 133 130 117 102 96 44 39 16 16 28 21 13 8 4 1 358 357 357 354
45 79 224 175 125 17 88 75 358 354 5 220 291 72 248 191 302 181 164 166 155 137 136 141 136 149 165 186 264 285 287 323 354 359 5 4 359 356 357 353 348 345 345 345
150 307 173 202 180 175 179 153 158 206 203 246 332 237 256 107 26 97 119 132 134 143 150 158 169 175 212 249 277 302 308 315 313 323 338 341 336 340 340 336 334 333 330 330
149 241 81 63 27 85 217 192 175 104 358 64 244 301 338 74 66 82 113 119 142 140 141 156 176 205 230 249 242 263 286 297 309 313 315 313 316 320 326 326 325 323 321 320
189 103 200 168 52 14 170 176 62 354 146 240 277 252 228 201 185 159 145 151 149 144 147 186 212 232 236 238 237 236 265 285 294 296 301 303 307 311 315 316 315 313 313 311
149 104 269 84 201 182 136 235 122 125 157 179 221 261 247 200 195 182 181 170 149 150 138 31 12 352 316 250 229 234 259 270 279 285 293 299 303 307 308 306 308 310 309 312
150 131 171 221 342 360 220 189 156 135 229 225 152 274 244 102 83 91 147 115 94 76 74 52 27 29 32 314 249 267 271 269 270 275 282 285 289 291 292 293 295 298 297 305
182 199 71 345 350 345 207 206 135 112 65 214 148 258 120 92 88 73 91 86 73 69 56 32 32 32 20 14 11 354 341 319 303 293 285 281 279 278 282 283 282 283 288 296
101 160 174 191 190 135 184 206 189 138 132 213 210 189 206 110 116 85 83 78 63 44 27 34 34 17 9 360 351 342 337 332 327 323 317 307 294 285 279 280 283 290 292 292
124 188 201 251 212 219 220 211 209 194 203 196 198 209 163 152 134 121 75 37 25 356 345 23 23 0 356 349 342 334 329 326 327 324 324 321 315 298 306 306 307 305 301 295
62 214 94 313 291 250 227 231 241 228 229 252 260 260 141 135 119 103 104 83 319 315 348 357 346 344 342 338 331 326 322 321 321 317 313 310 304 301 290 287 292 290 293 293
145 136 99 251 15 356 318 223 213 197 175 213 231 193 145 102 96 81 27 72 69 6 344 329 322 325 323 320 317 312 311 312 311 311 310 306 305 303 297 297 296 291 284 286
139 130 124 219 47 256 257 36 120 133 76 92 98 117 113 112 108 353 98 64 2 325 311 310 312 315 315 315 312 313 313 310 306 307 304 303 300 297 297 294 283 286 288 289
91 138 142 162 200 304 182 193 160 168 101 19 105 95 93 59 72 288 135 187 226 243 282 297 303 303 305 304 302 302 302 301 299 296 294 295 297 293 295 292 286 292 294 294
82 115 151 149 187 242 201 205 49 75 197 161 115 86 57 59 0 247 272 289 286 295 297 289 288 291 294 297 299 299 297 293 290 291 294 293 290 287 287 288 288 293 290 284
123 132 206 201 222 269 179 157 47 121 191 101 74 53 27 357 215 255 283 286 285 284 287 288 283 281 286 294 294 283 285 283 289 294 294 290 287 288 286 281 282 284 283 283
163 156 174 173 214 262 145 91 174 156 132 122 98 100 317 282 287 281 282 275 280 280 285 285 280 278 285 287 285 281 280 287 295 294 292 292 293 293 286 280 285 285 278 277
169 175 176 184 204 130 89 126 129 131 136 157 168 251 251 264 266 278 283 281 277 281 287 293 286 284 287 293 293 284 286 295 294 292 291 290 291 290 282 282 285 280 283 277
91 107 134 130 72 128 123 111 127 122 130 160 221 250 260 280 288 291 293 291 293 294 297 296 290 286 287 293 291 288 294 295 292 292 294 291 290 286 284 280 280 281 279 277
193 122 137 66 170 88 75 123 139 132 148 219 271 262 266 279 287 283 293 293 290 294 297 295 292 292 293 298 296 298 298 299 298 299 296 294 292 287 281 276 274 276 277 274
189 172 156 204 207 133 150 161 165 125 312 310 302 287 276 270 278 293 292 291 292 293 293 295 296 300 301 303 305 307 308 307 301 298 298 296 296 294 289 283 283 280 280 280